Probability
0 0 0 0 0 0 0 0 0 0 0 0 0 1 3 4 4 4 5 6 6 5 5 5 6 6 8 9 10 10 9 11 11 10 9 7 4 2 2 3 5 7 9 10
0 0 0 0 0 0 0 0 0 0 0 0 0 1 3 5 5 4 5 6 6 5 5 6 7 8 9 11 12 11 10 12 13 11 9 8 6 6 6 7 7 8 9 11
0 0 0 0 0 0 0 0 0 0 0 0 0 0 2 4 4 4 5 6 6 5 4 5 7 9 10 12 14 13 12 13 14 11 10 9 9 9 10 11 10 10 11 11
0 0 0 0 0 0 0 0 0 0 0 0 0 0 2 4 4 4 5 5 6 5 3 5 7 8 9 10 12 14 14 15 14 11 10 10 11 11 11 12 12 11 11 11
0 0 0 0 0 0 0 0 0 0 0 0 0 1 3 4 4 4 4 5 6 6 4 5 8 9 8 7 8 12 15 16 14 11 10 11 12 11 10 10 10 10 9 9
0 0 0 0 0 0 0 0 0 0 0 0 0 1 3 4 4 4 5 5 6 7 6 7 11 13 10 8 9 11 15 16 15 12 10 10 11 10 9 8 8 8 8 7
0 0 0 0 0 0 0 0 0 0 0 0 0 1 3 4 5 5 5 6 6 5 6 8 10 12 12 11 10 11 12 14 13 11 9 8 8 8 8 8 8 8 8 7
0 0 0 0 0 0 0 0 0 0 0 0 0 1 3 5 7 7 6 5 4 4 4 6 7 8 11 12 10 8 10 12 11 9 9 8 8 8 9 9 9 10 9 8
0 0 0 0 0 0 0 0 0 0 0 0 0 2 3 4 7 8 6 5 4 3 3 4 4 5 7 8 8 7 9 11 11 10 10 11 10 10 10 9 8 10 10 9
0 0 0 0 0 0 0 0 0 0 0 0 0 1 3 5 7 8 8 7 5 4 3 4 5 5 5 7 8 9 11 11 11 12 12 12 12 12 11 10 9 11 13 13
0 0 0 0 0 0 0 0 0 0 0 0 0 0 2 6 8 9 9 8 6 5 5 6 7 7 8 9 12 14 13 13 12 12 11 11 12 13 13 12 12 14 16 18
0 0 0 0 0 0 0 0 0 0 0 0 0 1 3 7 10 11 10 10 9 7 7 8 9 11 13 15 17 19 18 16 13 12 10 10 12 13 14 13 14 15 17 18
0 0 0 0 0 0 0 0 0 0 0 0 0 1 5 9 12 12 11 12 12 11 9 9 11 13 16 19 21 23 22 18 16 14 11 11 11 12 12 12 12 11 12 13
0 0 0 0 0 0 0 0 0 0 0 0 0 1 6 10 14 14 14 15 16 16 14 13 13 15 17 19 21 21 20 19 19 18 15 13 11 9 8 8 8 7 7 8
0 0 0 0 0 0 0 0 0 0 0 0 0 2 6 11 14 16 17 18 19 18 17 17 16 17 18 18 18 16 16 17 20 20 18 16 14 10 8 7 7 7 7 7
0 0 0 0 0 0 0 0 0 0 1 1 1 3 8 12 15 18 19 20 21 19 17 16 17 19 20 19 17 15 14 17 20 20 19 19 18 15 11 9 9 9 9 9
0 0 0 0 0 0 0 1 1 1 2 2 3 6 11 15 17 19 20 19 18 18 17 16 16 19 20 19 18 17 17 18 20 21 21 19 19 17 15 13 12 11 11 10
0 0 0 0 0 0 1 2 3 2 3 4 5 8 13 17 18 18 16 15 15 17 19 18 17 18 18 17 18 19 19 20 22 23 22 19 18 19 19 18 16 14 11 11
0 0 0 0 0 1 2 3 4 4 3 4 6 10 14 16 16 15 14 14 14 16 19 19 17 16 17 17 18 20 20 20 22 24 22 20 20 21 21 22 20 15 11 10
0 0 0 0 0 1 3 3 4 4 5 6 7 10 13 15 15 16 17 18 18 18 19 18 16 18 20 21 23 23 22 21 22 23 22 22 23 22 23 23 21 16 13 11
0 0 0 0 1 2 3 3 4 6 8 8 7 8 12 15 17 20 22 22 21 20 18 17 17 20 22 23 25 25 24 23 23 22 22 23 23 23 24 23 21 19 16 13
1 1 1 1 2 3 2 2 5 8 10 9 7 8 12 15 18 23 26 25 23 20 17 16 18 21 21 21 22 24 23 23 25 25 25 24 22 22 23 24 24 23 20 17
4 4 4 4 3 3 2 2 5 7 8 7 7 10 13 15 18 23 27 26 22 17 14 15 19 22 22 20 19 20 21 22 25 27 27 26 22 22 23 25 25 25 23 20
6 6 5 5 5 4 3 3 4 5 5 6 8 11 13 14 17 20 23 21 17 14 13 15 19 23 24 21 19 19 20 22 25 26 27 26 24 23 24 24 24 24 23 22
6 6 6 5 6 6 5 4 3 4 5 6 8 11 12 12 14 15 15 15 14 12 13 15 18 22 23 22 20 20 19 22 25 24 24 24 23 22 23 23 22 21 22 23
6 7 7 5 6 7 6 4 3 5 7 8 9 9 11 12 12 12 11 12 12 12 14 16 18 21 23 22 21 20 19 21 24 22 21 21 21 21 22 22 20 19 21 23
Wind_Speed
7 9 7 5 5 4 4 4 2 0 1 3 2 1 2 5 6 7 7 7 7 7 7 7 7 7 7 6 6 5 4 4 4 3 3 3 2 2 2 2 2 1 0 1
8 9 5 4 5 6 6 5 3 1 1 3 2 2 2 4 6 6 7 7 7 7 7 7 7 7 7 7 7 6 6 5 5 3 2 2 1 2 1 1 2 1 1 1
9 3 4 6 7 7 7 6 4 2 2 5 5 4 5 5 6 6 6 7 7 7 8 8 8 7 7 7 7 6 5 5 4 4 4 3 3 2 2 2 2 1 1 1
8 4 5 8 8 8 6 4 5 5 6 4 5 4 4 5 6 6 7 7 7 7 8 8 8 8 8 7 7 6 6 5 5 5 3 3 2 2 1 1 1 1 1 1
7 6 7 8 7 7 4 3 5 6 7 6 6 6 3 6 5 6 7 6 6 7 7 8 8 8 7 7 7 6 6 5 5 4 4 4 3 2 1 1 1 1 1 1
6 4 6 5 4 5 4 5 6 8 8 8 5 7 2 2 3 4 5 6 6 7 7 8 8 8 7 7 7 7 6 6 5 5 4 4 3 2 1 1 1 1 1 1
9 8 7 6 7 8 9 9 6 7 7 5 3 6 1 1 1 2 3 5 6 7 8 8 9 9 8 8 7 7 7 6 5 5 5 4 4 3 3 2 1 1 1 1
10 9 9 8 9 7 10 11 8 6 6 3 6 5 1 2 1 2 3 5 7 8 8 8 9 8 8 8 8 7 7 6 6 5 4 4 4 3 2 2 1 1 1 1
7 6 6 5 5 8 8 9 9 9 8 7 4 3 3 3 3 3 4 6 7 7 8 8 8 8 8 8 8 7 7 6 6 5 4 4 4 3 2 2 3 2 1 1
6 6 6 6 6 5 7 6 6 9 7 8 5 5 2 3 3 4 4 5 6 7 8 8 8 8 7 8 8 7 7 7 6 5 4 4 3 3 2 2 1 1 1 1
9 8 7 8 8 8 8 8 8 8 7 8 6 1 3 2 2 3 4 4 5 5 7 7 7 7 7 8 8 8 7 7 6 5 4 3 3 3 3 2 2 2 2 2
8 8 7 7 4 4 7 8 9 8 7 8 8 1 4 3 2 3 4 4 4 4 5 7 7 7 7 8 8 8 7 7 6 5 5 4 3 3 3 3 2 2 3 3
5 7 8 8 9 8 7 8 9 10 8 8 9 2 6 5 4 4 4 5 5 5 5 6 7 7 6 6 6 7 7 6 6 6 5 4 4 3 3 2 2 2 2 3
6 8 9 9 4 4 7 8 8 10 9 8 8 5 5 4 4 4 4 4 5 5 5 5 6 6 6 5 5 5 6 6 5 5 5 5 5 4 4 3 3 3 3 3
7 9 8 7 5 5 7 8 8 10 10 10 6 6 4 4 4 3 4 5 5 5 5 5 5 5 5 5 5 4 4 4 4 4 5 4 4 4 4 3 4 4 4 3
5 7 7 8 7 8 9 9 9 10 10 9 8 6 2 3 4 4 4 5 5 5 4 4 4 4 5 5 4 4 4 4 4 4 4 3 3 4 4 4 4 3 3 3
6 6 7 9 7 9 11 9 10 9 8 9 9 4 4 5 5 4 5 5 4 4 4 4 3 3 3 4 4 4 3 3 4 4 3 3 4 4 4 4 4 4 4 4
7 7 7 7 6 11 2 1 3 6 6 6 4 3 3 3 4 4 4 4 4 3 3 3 3 2 2 3 4 3 3 3 4 4 4 4 4 4 4 4 4 4 4 4
8 8 7 7 10 9 5 3 4 5 4 3 4 3 3 4 6 6 4 3 3 3 3 2 2 2 2 2 3 4 4 4 4 3 3 4 4 4 4 4 4 4 4 4
7 8 9 8 10 9 1 3 2 5 5 2 3 3 4 6 6 5 4 2 3 3 3 2 2 2 2 1 2 4 4 4 4 3 3 3 4 4 4 4 4 4 3 4
9 9 11 11 10 5 3 2 5 7 1 3 2 3 3 3 2 4 3 3 3 3 2 2 1 1 1 1 2 3 3 4 3 3 3 3 4 4 4 4 3 3 4 4
7 8 9 9 11 5 4 3 3 3 3 2 2 1 1 3 4 3 3 3 2 2 2 1 1 0 1 1 2 2 2 2 2 3 3 3 4 4 3 3 4 4 4 4
5 5 3 4 2 3 1 0 2 1 2 2 1 2 3 2 2 3 2 2 1 1 1 0 1 0 0 1 2 2 2 2 2 3 4 4 4 4 4 4 4 4 4 4
3 2 3 4 2 1 1 1 1 0 1 1 1 2 3 2 1 1 1 1 1 0 1 1 1 1 1 1 2 2 2 2 3 4 4 4 4 4 4 4 4 4 4 4
3 3 4 5 3 2 2 1 1 1 1 1 1 2 2 2 1 1 1 1 1 1 1 2 2 1 1 1 2 2 2 2 3 4 4 4 4 3 3 3 2 3 2 2
5 5 6 4 3 3 1 1 0 1 1 2 2 2 2 2 2 2 2 2 2 2 2 2 3 2 2 2 1 1 1 2 2 3 4 3 3 3 3 3 2 1 2 2
Wind_Direction
201 224 219 215 236 285 281 275 276 44 121 256 260 271 187 180 198 191 187 185 182 182 169 166 171 171 167 166 168 170 172 169 177 169 173 172 159 157 142 138 121 130 151 161
206 222 227 235 226 239 246 252 248 167 131 263 274 260 209 192 202 202 195 191 190 181 171 170 176 174 173 170 172 174 177 177 184 166 171 166 164 164 141 127 119 158 186 230
227 210 196 217 215 231 238 257 272 264 221 223 254 228 191 184 193 198 206 203 197 190 181 175 178 177 175 175 178 178 178 178 180 177 177 168 169 183 163 162 165 172 193 214
233 215 211 221 225 242 239 246 258 244 242 226 247 266 169 186 192 201 204 203 200 189 185 177 176 178 180 180 175 174 176 178 176 185 188 195 189 187 166 175 155 176 202 220
210 207 218 230 236 246 259 236 238 244 251 254 226 262 166 176 201 203 200 197 196 184 178 174 173 173 175 175 173 168 170 176 179 185 182 202 205 192 177 169 157 216 181 215
232 209 235 243 230 221 195 202 214 231 244 247 237 256 232 171 215 206 190 187 186 176 172 168 167 164 168 168 171 171 170 177 180 185 187 200 201 201 196 205 198 221 192 198
213 209 204 213 207 194 214 228 228 227 226 235 178 249 256 57 154 225 195 177 175 172 169 166 167 167 170 172 175 174 172 176 180 185 193 198 202 203 207 226 206 250 235 214
216 207 193 205 230 225 223 244 255 264 261 229 186 235 112 90 159 203 196 176 171 175 171 169 170 171 173 174 175 175 175 175 178 183 189 195 201 214 204 214 247 225 260 261
227 208 161 195 227 243 225 239 265 272 269 266 232 212 190 181 194 187 178 170 171 174 172 170 170 173 174 174 175 176 174 174 177 178 179 186 191 211 208 201 219 210 214 226
243 229 185 174 198 215 263 248 240 253 259 262 241 231 220 184 193 182 173 164 164 167 172 168 167 171 172 172 171 173 172 173 173 173 184 173 179 193 206 221 211 231 227 241
241 233 200 197 221 218 204 221 242 256 268 272 266 247 94 166 161 162 151 148 161 164 161 161 160 161 163 161 162 166 168 168 169 169 171 170 172 182 196 195 206 213 222 218
228 243 228 216 205 264 246 240 236 248 248 258 274 246 107 130 130 130 131 130 135 147 151 153 153 154 159 161 162 165 168 169 168 165 169 169 166 178 199 196 205 212 220 226
209 236 223 209 199 203 228 233 244 257 253 251 257 202 127 137 137 122 121 129 133 138 140 146 148 154 158 158 161 161 167 166 165 163 169 169 176 185 199 202 205 212 221 233
244 243 250 257 260 199 217 224 234 249 252 249 251 245 170 168 163 137 129 135 138 136 140 146 146 148 150 153 157 165 172 166 167 170 174 179 190 197 201 204 206 213 219 226
243 241 246 263 269 253 246 239 233 243 260 269 264 251 216 193 171 148 146 147 143 140 142 145 147 147 152 154 159 167 175 171 174 181 189 194 199 198 203 208 212 215 222 227
248 254 240 241 237 241 247 246 241 243 252 255 255 250 209 154 155 161 161 159 154 146 143 142 149 152 157 158 158 162 176 176 181 191 197 198 203 204 210 216 215 214 222 231
226 238 244 244 232 242 240 242 241 239 246 252 253 242 180 186 179 173 165 163 156 147 143 148 152 159 166 164 163 172 180 182 188 196 203 206 208 211 217 222 215 219 225 229
230 239 245 248 232 243 255 52 257 248 248 254 258 228 196 184 169 158 155 151 138 133 138 142 151 162 171 169 169 176 186 187 197 203 211 215 217 220 222 222 226 228 232 234
228 227 243 245 240 243 212 186 231 239 238 241 227 206 178 152 156 154 135 128 128 126 125 133 155 161 160 173 170 174 190 191 201 206 214 218 220 221 220 223 229 230 232 235
200 217 237 238 253 257 173 124 210 237 221 175 188 187 175 180 206 141 124 129 118 115 120 133 154 148 140 163 185 192 196 201 215 222 224 222 223 224 224 227 232 234 233 233
197 210 229 236 244 254 73 133 206 232 119 116 166 175 187 200 7 89 125 127 122 109 108 120 134 117 109 161 207 218 215 221 227 229 229 224 225 227 225 226 226 222 228 233
227 221 223 235 240 232 93 179 234 24 74 107 131 136 122 102 93 107 121 130 136 125 120 133 132 105 95 212 225 232 239 247 236 231 231 230 228 231 220 219 218 219 225 225
243 273 264 262 289 55 105 248 36 44 108 94 101 112 128 131 130 121 125 124 111 91 58 221 193 197 211 255 258 257 266 259 241 230 229 230 228 225 218 218 217 216 219 233
208 284 260 241 208 166 185 216 201 179 130 89 92 127 135 145 164 159 151 146 114 46 293 274 240 247 268 275 272 275 271 251 236 232 231 230 228 224 219 226 220 221 223 230
268 222 230 239 234 218 199 194 177 171 163 146 132 142 143 163 210 245 238 238 271 284 295 282 269 262 275 296 289 284 275 253 240 239 237 236 230 224 224 224 236 234 226 233
238 239 244 249 228 246 213 162 199 211 193 183 183 189 193 201 223 241 255 270 276 276 274 269 268 269 275 285 284 280 267 255 245 238 239 243 236 222 225 216 201 70 220 170